www.pogodaiklimat.ru

Архив погоды в Гамбурге (Германия)

Время
(UTC), дата
01 24.02
02 24.02
03 24.02
04 24.02
05 24.02
06 24.02
07 24.02
08 24.02
09 24.02
10 24.02
11 24.02
12 24.02
13 24.02
14 24.02
15 24.02
16 24.02
17 24.02
18 24.02
19 24.02
20 24.02
21 24.02
22 24.02
23 24.02
00 25.02
01 25.02
02 25.02
03 25.02
04 25.02
05 25.02
06 25.02
07 25.02
08 25.02
09 25.02
10 25.02
11 25.02
12 25.02
13 25.02
14 25.02
15 25.02
16 25.02
17 25.02
18 25.02
19 25.02
20 25.02
21 25.02
22 25.02
23 25.02
00 26.02
01 26.02
02 26.02
03 26.02
04 26.02
05 26.02
06 26.02
07 26.02
08 26.02
09 26.02
10 26.02
11 26.02
12 26.02
13 26.02
14 26.02
15 26.02
16 26.02
17 26.02
18 26.02
19 26.02
20 26.02
21 26.02
22 26.02
23 26.02
00 27.02
01 27.02
02 27.02
03 27.02
04 27.02
05 27.02
06 27.02
07 27.02
08 27.02
09 27.02
10 27.02
11 27.02
12 27.02
13 27.02
14 27.02
15 27.02
16 27.02
17 27.02
18 27.02
19 27.02
20 27.02
21 27.02
22 27.02
23 27.02
00 28.02
01 28.02
02 28.02
03 28.02
04 28.02
05 28.02
06 28.02
07 28.02
08 28.02
09 28.02
10 28.02
11 28.02
12 28.02
13 28.02
14 28.02
15 28.02
16 28.02
17 28.02
18 28.02
19 28.02
20 28.02
21 28.02
22 28.02
23 28.02
00 29.02
01 29.02
02 29.02
03 29.02
04 29.02
05 29.02
06 29.02
07 29.02
08 29.02
09 29.02
10 29.02
11 29.02
12 29.02
13 29.02
14 29.02
15 29.02
16 29.02
17 29.02
18 29.02
19 29.02
20 29.02
21 29.02
22 29.02
23 29.02
00 1.03
01 1.03
02 1.03
04 1.03
05 1.03
06 1.03
07 1.03
08 1.03
09 1.03
10 1.03
11 1.03
12 1.03
13 1.03
14 1.03
15 1.03
16 1.03
17 1.03
18 1.03
19 1.03
20 1.03
21 1.03
22 1.03
23 1.03
Ветер
(напр.,м/с)
Видим. Явления Облачность Т
(С)
Тd
(С)
f
(%)
Тe
(С)
Тes
(С)
Комфортность P
(гПа)
Po
(гПа)
Тmin
(С)
Tmax
(С)
R
(мм)
R24
(мм)
S
(см)
ЮВ 3-4 {5} 50 км ясно +3.5 +0.9 83 -0 -0 по сезону 996.5 994.6
ЮВ 4-5 {5} 50 км ясно +3.3 +0.8 84 -1 -1 тепло 996.8 994.9
ЮВ 4-5 {6} 50 км ясно +2.8 +0.6 85 -2 -2 по сезону 996.9 995.0
ЮВ 4-6 {6} 55 км ясно +2.3 +0.5 88 -3 -3 тепло 997.0 995.1
В 1-2 {4} 50 км ясно +2.1 +0.5 89 0 0 тепло 997.4 995.5
ЮВ 3-5 {6} 40 км 6/6 1500 м +2.1 +0.3 88 -2 -2 по сезону 997.8 995.9 +1.6 +7.4 0.7
ЮВ 3-4 {4} 45 км 10/0 2000 м +2.5 +0.5 87 -2 -2 тепло 998.2 996.3
Ю 3-5 {5} 45 км 10/10 1050 м +3.7 +1.2 84 -0 -0 тепло 998.5 996.6
Ю 3-4 {5} 55 км 10/10 1000 м +4.8 +1.7 80 +1 +1 по сезону 998.8 997.0
Ю 4-5 {5} 50 км 9/9 1320 м +6.1 +2.3 77 +2 +3 тепло 999.2 997.4
ЮЗ 6-8 {8} 45 км 10/10 1500 м +7.5 +3.3 75 +3 +3 тепло 999.4 997.6
ЮЗ 3-4 {8} 65 км 10/10 750 м +8.3 +3.3 71 +6 +6 тепло 999.4 997.6
Ю 5-6 {7} 60 км 10/10 900 м +8.7 +3.3 69 +5 +5 тепло 999.5 997.7
Ю 6-9 {9} >70 км 10/10 1000 м +8.4 +2.7 67 +5 +5 тепло 999.7 997.9
Ю 5-6 {9} 55 км 10/10 960 м +9.0 +3.3 67 +6 +6 тепло 999.9 998.1
Ю 5-8 {8} 65 км 10/10 1020 м +8.0 +2.6 69 +4 +4 тепло 1000.4 998.6
ЮЗ 7-10 {18} 26 км слаб. морось с дождем 10/10 420 м +5.1 +2.9 86 -0 -0 тепло 1001.7 999.8
ЮЗ 4-5 {18} 55 км в посл. час дождь 1/0 +3.8 +2.5 91 -1 -1 по сезону 1002.4 1000.5 +2.1 +9.2 2
Ю 5-6 {6} 50 км 3/3 1300 м +4.2 +3.1 93 -1 -1 тепло 1002.9 1001.0
Ю 4-6 {7} 50 км 1/1 1320 м +4.2 +2.5 89 -0 -0 тепло 1003.1 1001.2
ЮЗ 8-11 {11} 60 км в посл. час дождь 9/9 1140 м +4.8 +2.0 82 -1 -1 по сезону 1003.6 1001.7 0.0
Ю 4-6 {13} 60 км в посл. час дождь 9/9 1500 м +3.4 +1.7 89 -1 -1 тепло 1003.8 1001.9
Ю 4-6 {8} 60 км 10/10 1050 м +4.0 +1.6 84 -0 -0 тепло 1003.9 1002.0
Ю 4-6 {13} 65 км 9/9 1500 м +4.1 +1.7 84 -0 -0 по сезону 1004.1 1002.2 0.1
Ю 4-5 {6} 65 км 10/0 +3.5 +1.6 87 -1 -1 тепло 1004.1 1002.2
Ю 4-6 {6} 60 км 3/0 +3.0 +1.4 89 -2 -2 тепло 1003.9 1002.0
ЮВ 4-5 {6} 55 км 10/0 +2.1 +1.0 92 -3 -3 по сезону 1003.6 1001.7
ЮВ 4-5 {6} 55 км 10/0 +2.3 +0.9 90 -3 -3 по сезону 1003.6 1001.7
ЮВ 5-6 {6} 50 км 10/10 1500 м +2.7 +0.9 88 -3 -3 тепло 1003.3 1001.4
ЮВ 4-5 {7} 55 км 10/10 1380 м +2.9 +0.6 85 -2 -2 по сезону 1002.9 1001.0 +1.9 +5.1 1.8
ЮВ 4-5 {6} 65 км 9/9 1500 м +3.1 +0.9 85 -2 -2 тепло 1002.9 1001.0
ЮВ 4-6 {6} 45 км слаб. морось 10/10 750 м +4.6 +1.5 80 0 0 тепло 1003.0 1001.1
Ю 4-6 {7} 65 км в посл. час дождь 10/10 800 м +5.3 +2.4 82 +1 +1 по сезону 1002.9 1001.0 0.0
Ю 5-8 {8} 65 км 10/10 1170 м +6.3 +2.2 75 +2 +2 тепло 1002.7 1000.9
Ю 7-9 {9} >70 км 10/10 750 м +7.6 +2.7 71 +3 +3 тепло 1002.4 1000.6
Ю 7-9 {10} 22 км слаб. морось с дождем 10/10 800 м +7.3 +2.6 72 +3 +3 по сезону 1002.1 1000.3 0.0
Ю 5-8 {9} 55 км в посл. час дождь 10/10 700 м +7.6 +3.1 73 +4 +4 тепло 1002.1 1000.3
Ю 8-15 {15} 14 км слаб. дождь 10/10 750 м +5.9 +3.3 83 0 0 тепло 1002.1 1000.3
ЮЗ 4-6 {15} 55 км в посл. час дождь 6/6 540 м +7.5 +4.1 79 +4 +4 тепло 1002.1 1000.3 0.8
ЮЗ 4-5 {7} >70 км 9/9 870 м +7.0 +3.8 80 +4 +4 тепло 1002.3 1000.5
Ю 3-4 {5} >70 км в посл. час дождь 10/10 800 м +6.7 +3.9 82 +4 +4 тепло 1002.5 1000.7
ЮВ 5-6 {15} 60 км в посл. час дождь 10/10 1080 м +4.9 +3.7 92 0 0 по сезону 1003.1 1001.2 +2.8 +8.2 1
ЮВ 2-3 {5} 50 км 10/10 1410 м +4.8 +3.5 91 +2 +2 тепло 1003.3 1001.4
Ю 2-3 {4} 45 км 6/6 1500 м +4.0 +2.9 93 +1 +1 тепло 1003.3 1001.4
ЮЗ 1-2 {5} 1700 м дождь 9/9 800 м +3.8 +3.8 100 +2 +2 по сезону 1003.7 1001.8 0.3
Ю 3-4 {5} 22 км слаб. морось 9/9 800 м +4.9 +4.0 94 +1 +1 тепло 1003.8 1001.9
В 1-1 {3} 17 км в посл. час дождь 6/6 1170 м +4.0 +3.2 95 +2 +2 тепло 1003.6 1001.7
СВ 1-2 {5} 300 м туман 9/9 1500 м +2.2 +2.2 100 0 0 по сезону 1004.0 1002.1 1
С 1-1 {1} 200 м туман 10/0 +0.9 +0.8 99 -1 -1 тепло 1004.0 1002.1
В 1-1 {1} 200 м переохл. туман 10/0 -0.7 -1.2 96 -3 -3 тепло 1004.2 1002.3
штиль 0-1 {2} 200 м переохл. туман 9/0 -0.5 -0.5 100 -2 -2 по сезону 1004.3 1002.4
СВ 2-2 {2} 3200 м в посл. час туман 10/0 +0.2 +0.1 99 -4 -4 по сезону 1004.6 1002.7
С 1-2 {2} 400 м переохл. туман 10/0 -1.8 -2.2 97 -4 -4 тепло 1005.5 1003.6
СЗ 1-2 {2} 400 м переохл. туман 10/0 -0.1 -0.1 100 -2 -2 по сезону 1006.1 1004.2 -2.1 +5.1 3.4
С 1-2 {2} 2200 м в посл. час туман 10/10 30 м +0.1 -0.2 98 -2 -2 тепло 1006.6 1004.7
С 2-3 {3} 4500 м в посл. час туман 10/10 60 м +1.2 +1.2 100 -3 -3 тепло 1007.2 1005.3
С 2-4 {4} 4900 м дымка 10/10 60 м +1.8 +1.6 99 -2 -2 по сезону 1007.8 1005.9
СВ 4-5 {5} 5000 м дымка 10/10 90 м +3.2 +2.6 96 -2 -2 по сезону 1008.3 1006.4
СВ 3-4 {5} 9000 м 10/10 120 м +4.1 +3.2 94 0 0 тепло 1008.7 1006.8
СВ 4-6 {6} 20 км 10/10 240 м +6.4 +4.2 86 +3 +3 по сезону 1008.8 1006.9
СВ 4-6 {7} 19 км 10/10 240 м +5.8 +3.7 86 +2 +2 тепло 1009.5 1007.6
СВ 4-7 {7} 14 км 10/10 270 м +6.0 +4.1 88 +2 +2 тепло 1010.1 1008.2
С 5-7 {7} 21 км 10/10 330 м +6.0 +3.6 85 +2 +2 по сезону 1010.5 1008.6
С 5-7 {7} 19 км 10/10 270 м +5.0 +3.1 88 0 0 тепло 1011.2 1009.3
СВ 3-5 {7} 18 км 10/10 240 м +4.6 +2.8 88 +1 +1 тепло 1012.3 1010.4
С 3-5 {7} 17 км 10/0 +4.0 +2.4 89 0 0 по сезону 1012.9 1011.0 -0.6 +6.8
С 3-5 {6} 15 км 10/0 +3.5 +2.1 91 -1 -1 тепло 1013.4 1011.5
С 3-4 {5} 16 км 10/0 +2.9 +1.6 91 -1 -1 тепло 1014.3 1012.4
СВ 4-6 {6} 4700 м дымка 10/10 90 м +2.5 +2.0 96 -3 -3 по сезону 1015.1 1013.2
СВ 3-5 {5} 7000 м дымка 10/10 120 м +2.9 +2.3 96 -1 -1 тепло 1015.7 1013.8
СВ 2-4 {5} 6000 м дымка 10/10 120 м +3.3 +2.9 97 0 0 тепло 1016.0 1014.1
С 2-4 {6} 4500 м дымка 10/10 120 м +3.3 +2.6 95 0 0 по сезону 1016.3 1014.4
СВ 4-7 {7} 5000 м дымка 10/10 120 м +3.4 +2.8 96 -1 -1 тепло 1016.6 1014.7
СВ 2-4 {6} 6000 м дымка 10/10 150 м +3.8 +3.1 95 +1 +1 тепло 1016.9 1015.0
СВ 3-5 {7} 9000 м 10/10 180 м +3.9 +2.7 92 0 0 по сезону 1017.1 1015.2
С 4-7 {7} 8000 м 10/10 150 м +3.4 +2.4 93 -1 -1 тепло 1017.6 1015.7
С 4-6 {7} 7000 м дымка 10/10 120 м +2.9 +2.2 95 -2 -2 тепло 1017.9 1016.0
С 3-4 {7} 8000 м 10/10 150 м +2.8 +1.9 94 -1 -1 по сезону 1018.0 1016.1 +2.2 +4.1
С 4-5 {5} 11 км 10/10 150 м +2.8 +1.9 94 -2 -2 тепло 1018.8 1016.9
С 2-4 {6} 17 км 10/10 180 м +2.9 +1.7 92 -0 -0 тепло 1019.2 1017.3
С 2-3 {6} 18 км 10/10 210 м +3.3 +1.7 89 0 0 по сезону 1019.6 1017.7
СВ 3-4 {6} 22 км 10/10 240 м +3.7 +1.9 88 -0 -0 тепло 1019.2 1017.3
СВ 2-4 {4} 24 км 10/10 300 м +4.1 +1.9 86 +1 +1 тепло 1019.6 1017.7
С 1-2 {6} 28 км 10/10 360 м +4.3 +1.7 83 +3 +3 по сезону 1019.5 1017.6
В 1-3 {4} 35 км 9/9 420 м +4.8 +1.7 80 +4 +4 тепло 1018.8 1016.9
СЗ 2-3 {4} 35 км 10/10 420 м +4.9 +1.6 79 +2 +2 тепло 1018.7 1016.8
СЗ 1-2 {4} 35 км 10/10 480 м +5.2 +1.9 79 +4 +4 тепло 1018.6 1016.7
СВ 2-3 {3} 40 км 10/10 480 м +4.7 +1.4 79 +2 +2 тепло 1018.7 1016.8
С 1-2 {2} 30 км 10/10 500 м +4.3 +1.6 83 +3 +3 тепло 1018.8 1016.9
СВ 2-3 {4} 30 км 10/10 540 м +4.0 +1.2 82 +1 +1 по сезону 1019.1 1017.2 +2.8 +5.3
СВ 2-3 {3} 30 км 10/10 540 м +3.9 +1.2 83 +1 +1 тепло 1019.4 1017.5
В 2-2 {3} 27 км 10/10 570 м +3.5 +1.0 84 +1 +1 тепло 1019.5 1017.6
В 3-4 {4} 26 км 10/10 540 м +3.7 +0.8 81 0 0 по сезону 1019.4 1017.5
ЮВ 2-3 {4} 24 км 10/10 500 м +3.6 +0.9 82 +1 +1 тепло 1019.8 1017.9
З 2-2 {4} 16 км 10/10 500 м +3.6 +0.8 82 +1 +1 тепло 1020.0 1018.1
З 3-5 {5} 18 км 10/10 480 м +3.2 -0.2 78 -1 -1 по сезону 1020.0 1018.1
З 3-4 {4} 12 км 10/10 480 м +3.0 0.0 81 -1 -1 тепло 1019.7 1017.8
ЮЗ 2-3 {5} 13 км 10/10 450 м +2.7 -0.2 81 -0 -0 тепло 1019.5 1017.6
З 4-5 {5} 12 км 10/10 420 м +2.4 -0.4 82 -2 -2 по сезону 1019.6 1017.7
Ю 2-3 {4} 13 км 10/10 420 м +2.4 -0.2 83 -1 -1 тепло 1019.7 1017.8
ЮЗ 2-2 {3} 13 км 10/10 540 м +2.2 -0.2 84 -1 -1 тепло 1019.6 1017.7
Ю 2-3 {5} 11 км 10/10 500 м +2.7 +0.4 85 -0 -0 по сезону 1019.8 1017.9 +2.1 +4.1
Ю 3-4 {4} 13 км 10/10 500 м +3.1 +0.3 82 -1 -1 тепло 1020.3 1018.4
Ю 4-5 {5} 17 км 10/10 1320 м +3.5 +0.7 82 -1 -1 тепло 1020.6 1018.7
ЮЗ 5-6 {6} 11 км 9/9 400 м +4.5 +1.6 81 -0 -0 по сезону 1020.9 1019.0
ЮЗ 5-6 {7} 14 км 9/9 1110 м +5.5 +1.9 78 +1 +1 тепло 1021.0 1019.1
ЮЗ 4-6 {6} 16 км 8/8 660 м +6.7 +2.6 75 +3 +4 тепло 1021.3 1019.4
З 4-7 {7} 20 км 10/10 540 м +6.9 +3.1 77 +3 +3 по сезону 1021.4 1019.5
ЮЗ 4-5 {6} 16 км 10/10 450 м +6.5 +3.0 78 +3 +3 тепло 1021.0 1019.1
ЮЗ 5-6 {6} 14 км 10/10 420 м +6.6 +3.8 82 +2 +2 тепло 1020.7 1018.8
ЮЗ 5-6 {6} 17 км 10/10 420 м +6.6 +3.9 83 +2 +2 по сезону 1020.7 1018.8
ЮЗ 4-5 {6} 19 км 10/10 800 м +6.7 +3.8 82 +3 +3 тепло 1020.6 1018.7
ЮЗ 4-6 {6} 12 км 10/10 720 м +6.1 +3.9 86 +2 +2 тепло 1020.8 1018.9
ЮЗ 5-6 {6} 11 км 10/10 420 м +5.9 +3.7 86 +1 +1 по сезону 1020.7 1018.8 +2.7 +7.3
Ю 4-6 {6} 12 км 10/10 400 м +6.0 +3.6 85 +2 +2 тепло 1020.4 1018.5
Ю 5-6 {7} 13 км 10/10 400 м +5.8 +3.5 85 +1 +1 тепло 1020.4 1018.5
Ю 5-6 {7} 17 км 8/8 420 м +5.2 +2.8 84 +1 +1 по сезону 1020.3 1018.4
Ю 4-5 {5} 11 км 10/10 1500 м +4.9 +2.8 86 +1 +1 тепло 1019.7 1017.8
Ю 5-6 {7} 10 км 9/9 1500 м +4.7 +2.5 86 -0 -0 тепло 1019.3 1017.4
ЮВ 5-6 {7} 9000 м 10/10 1500 м +4.3 +2.1 86 -1 -1 по сезону 1018.4 1016.5
ЮВ 5-6 {6} 9000 м 9/9 1440 м +4.2 +1.9 85 -1 -1 тепло 1017.9 1016.0
Ю 5-7 {7} 11 км 10/10 1350 м +4.7 +1.4 79 0 0 тепло 1017.1 1015.2
ЮВ 5-7 {8} 11 км 9/9 1380 м +4.2 +1.1 80 -1 -1 по сезону 1016.3 1014.4
ЮВ 5-7 {7} 10 км 10/0 +3.1 +0.4 82 -2 -2 тепло 1015.6 1013.7
ЮВ 5-6 {7} 9000 м 10/0 +2.6 +0.1 84 -3 -3 тепло 1014.9 1013.0
ЮВ 5-7 {8} 9000 м 10/0 +2.1 0.0 86 -3 -3 по сезону 1014.5 1012.6 +2.0 +6.1
ЮВ 5-6 {7} 12 км 9/0 +3.3 +0.5 82 -2 -2 тепло 1014.3 1012.4
Ю 6-8 {8} 17 км 1/0 +4.9 +0.7 74 -0 +1 тепло 1013.7 1011.8
Ю 6-8 {8} 24 км 10/0 +6.4 +0.9 68 +2 +3 тепло 1013.4 1011.5
Ю 6-10 {10} 28 км 10/0 +8.2 +1.2 61 +5 +5 тепло 1012.8 1010.9
Ю 7-10 {10} 40 км 9/0 +9.9 +1.4 55 +6 +7 тепло 1012.3 1010.5
Ю 8-11 {11} 50 км 6/0 +11.2 +2.1 53 +8 +9 тепло 1011.5 1009.7
Ю 6-11 {11} 55 км 1/0 +12.4 +2.4 50 +10 +12 тепло 1010.7 1008.9
Ю 8-10 {12} 50 км 3/0 +12.9 +2.6 50 +10 +11 тепло 1010.1 1008.3
Ю 7-11 {12} 45 км 5/0 +12.4 +2.8 52 +10 +10 тепло 1009.4 1007.6
Ю 7-10 {10} 40 км 10/0 +11.5 +2.8 55 +9 +9 тепло 1008.8 1007.0
Ю 7-9 {10} 45 км 9/0 +10.6 +2.5 57 +7 +7 тепло 1008.7 1006.9
ЮВ 5-7 {12} 40 км 10/0 +9.6 +1.4 57 +7 +7 тепло 1008.5 1006.7 +2.0 +13.0
ЮВ 5-8 {8} 35 км 10/0 +9.1 +2.6 64 +6 +6 тепло 1008.2 1006.4
ЮВ 7-9 {11} 24 км 10/0 +8.1 +3.4 72 +4 +4 тепло 1007.8 1006.0
ЮВ 7-10 {11} 22 км 10/0 +7.6 +3.3 74 +3 +3 тепло 1007.4 1005.6
ЮВ 6-8 {9} 19 км 10/0 +6.5 +2.8 77 +2 +2 тепло 1007.0 1005.1
ЮВ 5-7 {8} 17 км 10/0 +5.6 +2.5 80 +1 +1 тепло 1006.5 1004.6
ЮВ 5-6 {11} 15 км 10/0 +5.4 +2.4 81 +1 +1 по сезону 1006.0 1004.1
ЮВ 5-6 {7} 13 км 10/0 +4.4 +2.1 85 -1 -1 тепло 1005.7 1003.8
ЮВ 5-8 {8} 11 км 9/0 +4.2 +2.2 87 -1 -1 тепло 1005.1 1003.2
ЮВ 5-7 {7} 8000 м ясно +3.4 +1.9 90 -2 -2 тепло 1004.3 1002.4
ЮВ 4-6 {7} 8000 м ясно +2.9 +1.6 91 -2 -2 тепло 1004.2 1002.3
ЮВ 5-7 {8} 8000 м ясно +2.9 +1.6 91 -3 -3 по сезону 1004.2 1002.3 +2.8 +9.7
ЮВ 4-5 {6} 8000 м 1/0 +3.0 +1.7 91 -2 -1 тепло 1004.2 1002.3
ЮВ 5-6 {7} 9000 м 10/0 +4.4 +2.3 86 -1 0 тепло 1004.5 1002.6
Ю 4-6 {8} 13 км 4/0 +6.2 +2.9 79 +3 +4 по сезону 1004.4 1002.6
ЮВ 4-5 {6} 15 км ясно +7.9 +3.4 73 +5 +8 тепло 1004.0 1002.2
Ю 4-6 {7} 18 км 9/9 1050 м +9.4 +4.5 71 +7 +7 тепло 1004.3 1002.5
Ю 3-4 {8} 18 км 10/10 720 м +10.1 +5.1 71 +8 +8 тепло 1004.5 1002.7
ЮЗ 5-7 {7} 30 км 10/10 750 м +11.2 +6.2 71 +9 +9 тепло 1004.6 1002.8
ЮЗ 4-5 {7} 23 км 9/9 800 м +11.0 +6.2 72 +9 +9 тепло 1004.8 1003.0
ЮЗ 3-4 {7} 28 км 9/9 840 м +11.2 +6.7 74 +9 +10 тепло 1004.7 1002.9
Ю 4-6 {6} 35 км 6/6 1380 м +10.6 +5.4 70 +8 +8 тепло 1004.5 1002.7
ЮВ 4-5 {5} 30 км 10/0 +9.5 +5.3 75 +7 +7 тепло 1004.7 1002.9
ЮВ 3-4 {7} 29 км 10/0 +9.4 +5.6 77 +7 +7 тепло 1005.2 1003.4 +2.5 +11.8
ЮВ 3-4 {6} 24 км 10/0 +9.3 +5.9 79 +7 +7 тепло 1005.1 1003.3
ЮВ 3-4 {6} 22 км 10/0 +8.9 +5.7 80 +6 +6 тепло 1005.3 1003.5
ЮВ 3-5 {6} 22 км 10/0 2000 м +9.0 +5.9 81 +7 +7 тепло 1005.1 1003.3
ЮВ 4-5 {5} 20 км 9/0 2000 м +9.1 +5.8 80 +6 +6 тепло 1005.2 1003.4
ЮВ 3-3 {5} 23 км 10/10 1500 м +8.7 +5.7 81 +6 +6 тепло 1005.0 1003.2
Местоположение метеостанции Гамбург (Германия): широта 53.63 долгота 10.00 высота над уровнем моря 16 м.
В архиве по умолчанию представлена погода в Гамбурге за последнюю неделю. Архивные данные за месяц целиком и за предыдущие месяцы, начиная с января 2011 года, Вы можете получить, выбрав интересующий диапазон дат из раскрывающегося списка и нажав кнопку "Найти!".
*Определитесь, кто Вы:
Внимание! Время в таблицах - всемирное. Для получения местного времени необходимо прибавить поправку, которая равна 1 ч.
Некоторые строки с данными для отдельных станций могут быть выделены курсивом. Это означает, что фактические данные отсутствуют по различным причинам, а приведенные значения являются расчетными модельными данными для данного пункта наблюдений.
Смотрите также архив погоды в соседних городах и на ближайших метеорологических станциях:
Партнеры нашего сайта:      
Пояснения к столбцам:
  • Ветер - указаны скорость ветра в м/с - средняя за 10 мин, порывы в срок и между сроками (в фигурных скобках) и направление, откуда дует ветер: С - северный,
  • СВ - северо-восточный, В - восточный, ЮВ - юго-восточный, Ю - южный, ЮЗ - юго-западный, З - западный, СЗ - северо-западный.
  • Видимость - горизонтальная дальность видимости в метрах или километрах. При видимости от 1 до 10 км при отсутствии осадков обычно наблюдается дымка, при ухудшении видимости до 1 км и менее - туман. В сухую погоду видимость может ухудшаться дымом, пылью или мглою.
  • Явления - указаны атмосферные явления, наблюдавшиеся в срок или в последний час перед сроком; фигурными скобками обозначены явления, наблюдавшиеся между сроками (за 1-3 часа до срока); квадратными скобками обозначены град или гололедные отложения с указанием их диаметра в мм.
  • Облачность - указаны через наклонную черту общая и нижняя облачность в баллах и высота нижней границы облаков в метрах; квадратными скобками обозначены формы облаков: Ci - перистые, Cs - перисто-слоистые, Cc - перисто-кучевые, Ac - высококучевые, As - высокослоистые, Sc - слоисто-кучевые, Ns - слоисто-дождевые, Cu - кучевые, Cb - кучево-дождевые. Подробнее классификацию облаков см. в Атласе облаков (PDF).
  • T - Температура воздуха - температура, измеренная на высоте 2 м над землей.
  • Td - Температура точки росы - температура, при понижении до которой содержащийся в воздухе водяной пар достигнет насыщения.
  • f - Относительная влажность воздуха - влажноcть воздуха, измеренная на высоте 2 м над землей.
  • Te - Эффективная температура - температура, которую ощущает одетый по сезону человек в тени. Характеристика душности погоды. При расчете учитывается влияние влажности воздуха и скорости ветра на теплоощущения человека.
  • Tes - Эффективная температура на солнце - температура, которую ощущает человек, с поправкой на солнечный нагрев. Характеристика знойности погоды. Зависит от высоты солнца над горизонтом, облачности и скорости ветра. Ночью, в пасмурную погоду, а также при ветре 12 м/с и более поправка равна нулю.
  • P - Атмосферное давление - приведенное к уровню моря атмосферное давление.
  • Po - Атмосферное давление - измеренное на уровне метеостанции атмосферное давление.
  • Tmin - Минимальная температура - минимум температуры воздуха на высоте 2 м над землей.
  • Tmax - Максимальная температура - максимум температуры воздуха на высоте 2 м над землей.
  • R - Количество осадков - Количество выпавших осадков за период времени, мм. При наведении курсора мыши на число - период времени, за который выпало указанное количество осадков.
  • R24 - Количество осадков - Количество выпавших осадков за 24 часа, мм.
  • S - Снежный покров - Высота снежного покрова, см. При наведении курсора мыши на число - состояние снежного покрова и степень покрытия местности в баллах.